Location: Clinton NY
(43.0598°N, 75.3602°W)
Time: 05:52:02
(UTC-04:00)

Amateur Radio Satellites - All Passes

Search period start: 28 May 2016 05:22
Search period end: 29 May 2016 05:22
Location: Clinton NY, 43.0598°N, 75.3602°W

Satellite Date Start Highest point End Downlink Frequencies (MHz)
Time Altitude Azimuth
AO-85 28 May 05:33:06 05:37:38 28° 112° (ESE) 05:42:09 145.980
STRAND 1 28 May 05:40:42 05:41:13 10° 55° (NE) 05:41:43 437.568
CUBESAT XI-V 28 May 05:44:36 05:49:17 80° 257° (WSW) 05:54:01 437.345
CUTE-I 28 May 06:09:55 06:13:04 16° 90° (E) 06:16:11 437.470
LilacSat-2 28 May 06:13:26 06:14:27 11° 90° (E) 06:15:29 437.200
YUBILEINY 28 May 06:21:53 06:24:45 12° 288° (WNW) 06:27:38 435.215
AO-7 28 May 06:29:09 06:36:33 37° 302° (WNW) 06:43:58 29.400- 29.500
HORYU 2 28 May 06:54:05 06:57:44 26° 294° (WNW) 07:01:25 437.375
NOAA 15 28 May 06:55:39 07:00:54 58° 101° (E) 07:06:05 137.62
Cosmos 2504 28 May 07:01:45 07:07:56 23° 280° (W) 07:14:19 435.465 / 435.565
Cubesat XI-IV 28 May 07:02:13 07:07:23 46° 99° (E) 07:12:31 437.490
NOAA 18 28 May 07:04:28 07:09:52 57° 101° (ESE) 07:15:16 137.9125
AO-85 28 May 07:12:39 07:17:57 50° 309° (NW) 07:23:07 145.980
PRISM 28 May 07:12:43 07:14:14 12° 61° (ENE) 07:15:45 437.425
STRAND 1 28 May 07:14:24 07:19:27 72° 74° (ENE) 07:24:34 437.568
Cosmos 2491 28 May 07:20:44 07:24:27 13° 306° (NW) 07:28:10 435.465 / 435.565
BRITE-PL 28 May 07:21:58 07:27:09 86° 105° (ESE) 07:31:53 437.365/2234.400
HO-68 28 May 07:27:09 07:28:38 11° 85° (E) 07:30:07 435.675
GOMX 1 28 May 07:44:07 07:48:49 67° 101° (E) 07:53:10 467.674
LilacSat-2 28 May 07:45:23 07:49:05 53° 286° (WNW) 07:52:46 437.200
CUTE-I 28 May 07:48:16 07:53:37 70° 287° (WNW) 07:58:56 437.470
Cosmos 2499 28 May 07:49:05 07:53:23 14° 57° (ENE) 07:57:45 435.465 / 435.565
AIST 1 28 May 08:02:01 08:05:57 32° 75° (ENE) 08:09:51
GONETS M04 28 May 08:15:10 08:22:51 33° 68° (ENE) 08:30:28
DOVE 4 28 May 08:30:15 08:34:40 85° 287° (WNW) 08:38:52 437.250
NOAA 15 28 May 08:36:25 08:40:14 21° 299° (WNW) 08:44:02 137.62
SO-50 28 May 08:37:28 08:41:47 34° 46° (NE) 08:45:59 436.795
Cubesat XI-IV 28 May 08:42:52 08:47:11 25° 296° (WNW) 08:51:30 437.490
PRISM 28 May 08:44:50 08:48:58 71° 258° (WSW) 08:53:09 437.425
CANX-2 28 May 08:44:52 08:48:59 44° 98° (E) 08:53:05 2200.000
NOAA 18 28 May 08:46:01 08:50:07 22° 299° (WNW) 08:54:12 137.9125
SEEDS 28 May 08:46:39 08:50:23 29° 96° (E) 08:54:06 437.485
O/OREOS (USA 219) 28 May 08:55:36 08:58:55 20° 101° (ESE) 09:02:15 437.305
STRAND 1 28 May 08:56:33 08:59:10 14° 270° (W) 09:01:48 437.568
CINEMA 3 28 May 08:56:33 09:00:39 53° 100° (E) 09:04:42 145.822/145.860
AO-85 28 May 08:57:15 08:59:39 13° 330° (NNW) 09:02:00 145.980
BRITE-PL 28 May 09:02:31 09:04:45 13° 303° (WNW) 09:06:55 437.365/2234.400
AUBIESAT-1 28 May 09:02:38 09:05:49 42° 105° (ESE) 09:08:58 437.475
ANTELSAT 28 May 09:04:49 09:05:06 10° 60° (ENE) 09:05:24 437.575/2403.000
M-CUBED/EXP-1 PRIME 28 May 09:09:49 09:13:05 69° 107° (ESE) 09:16:20 437.505
HO-68 28 May 09:10:27 09:17:37 67° 103° (ESE) 09:24:46 435.675
CUTE 1.7 + AOD 2 28 May 09:11:54 09:16:12 78° 102° (ESE) 09:20:29 437.475
Oscar 11 28 May 09:19:23 09:22:05 16° 91° (E) 09:24:47 145.826/435.025
PCSat 28 May 09:19:34 09:24:16 31° 110° (ESE) 09:28:59 145.827
GOMX 1 28 May 09:23:53 09:26:14 14° 300° (WNW) 09:28:32 467.674
COMPASS 1 28 May 09:31:19 09:35:32 66° 101° (ESE) 09:39:43 437.405
CUTE-I 28 May 09:31:36 09:32:42 11° 305° (NW) 09:33:48 437.470
AAUSAT CUBESAT 2 28 May 09:33:16 09:37:25 55° 100° (E) 09:41:32 437.432
ZACube-1 28 May 09:34:21 09:37:29 20° 94° (E) 09:40:38 437.345
Cosmos 2499 28 May 09:39:43 09:48:16 66° 78° (ENE) 09:57:05 435.465 / 435.565
AIST 1 28 May 09:40:02 09:43:21 22° 273° (W) 09:46:39
CUBEBUG 2 28 May 09:41:52 09:45:56 52° 100° (E) 09:50:03 437.445
UNISAT 6 28 May 09:56:05 10:00:01 34° 70° (ENE) 10:03:56 437.425
DELFI C3 28 May 09:58:51 10:01:49 19° 93° (E) 10:04:45 145.870
TIGRISAT 28 May 10:03:18 10:07:20 39° 71° (ENE) 10:11:20 435.000
UWE-3 28 May 10:09:02 10:13:13 74° 101° (E) 10:17:27 435.000/436.395/437.385
FUNcube-1 28 May 10:11:23 10:15:26 48° 99° (E) 10:19:33 145.935
GONETS M04 28 May 10:11:39 10:20:05 57° 269° (W) 10:28:29
SO-50 28 May 10:18:05 10:22:13 32° 246° (WSW) 10:26:15 436.795
CANX-2 28 May 10:21:36 10:24:31 18° 295° (WNW) 10:27:26 2200.000
SEEDS 28 May 10:22:29 10:25:59 25° 292° (WNW) 10:29:30 437.485
CUSAT 1 28 May 10:25:38 10:28:50 14° 75° (ENE) 10:32:16 437.405
DUCHIFAT 1 28 May 10:31:00 10:33:18 15° 63° (ENE) 10:35:37 145.980
O/OREOS (USA 219) 28 May 10:33:42 10:38:01 42° 299° (WNW) 10:42:22 437.305
CINEMA 3 28 May 10:35:09 10:37:22 14° 297° (WNW) 10:39:33 145.822/145.860
ANTELSAT 28 May 10:36:48 10:41:10 86° 257° (WSW) 10:45:29 437.575/2403.000
AUBIESAT-1 28 May 10:38:43 10:39:59 12° 301° (WNW) 10:41:17 437.475
BUGSAT 1 28 May 10:47:59 10:48:43 10° 61° (ENE) 10:49:28 437.445
CUTE 1.7 + AOD 2 28 May 10:50:11 10:51:25 11° 299° (WNW) 10:52:39 437.475
Oscar 11 28 May 10:54:17 10:58:29 48° 288° (WNW) 11:02:39 145.826/435.025
HO-68 28 May 10:59:04 11:04:46 27° 302° (WNW) 11:10:29 435.675
PCSat 28 May 11:02:24 11:07:31 41° 308° (NW) 11:12:40 145.827
POPSAT HIP 1 28 May 11:08:05 11:11:59 37° 71° (ENE) 11:15:54 437.405
QB50P1 28 May 11:08:23 11:12:19 38° 71° (ENE) 11:16:15 145.935-145.965
COMPASS 1 28 May 11:08:45 11:10:33 13° 298° (WNW) 11:12:21 437.405
ZACube-1 28 May 11:10:03 11:13:52 35° 289° (WNW) 11:17:45 437.345
AAUSAT CUBESAT 2 28 May 11:10:10 11:12:27 14° 297° (WNW) 11:14:44 437.432
QB50P2 28 May 11:10:51 11:14:51 43° 71° (ENE) 11:18:53 145.880/145.840
HUMSAT D 28 May 11:11:50 11:15:58 58° 101° (E) 11:20:06 437.325/437.525
POLYITAN 1 28 May 11:13:18 11:17:19 44° 72° (ENE) 11:21:21 437.675
BEESAT 2 28 May 11:18:32 11:21:25 20° 112° (ESE) 11:24:20 435.950
CUBEBUG 2 28 May 11:19:52 11:22:10 15° 296° (WNW) 11:24:30 437.445
NANOSAT C BR1 28 May 11:26:09 11:30:17 58° 74° (ENE) 11:34:26 145.865
DELFI C3 28 May 11:33:06 11:36:46 34° 289° (WNW) 11:40:26 145.870
UNISAT 6 28 May 11:33:27 11:36:50 22° 266° (W) 11:40:11 437.425
Cosmos 2499 28 May 11:33:44 11:40:47 29° 277° (W) 11:48:00 435.465 / 435.565
TIGRISAT 28 May 11:41:02 11:44:10 19° 267° (W) 11:47:18 435.000
JAS-2 28 May 11:42:45 11:48:57 29° 59° (ENE) 11:55:24 435.910
UWE-3 28 May 11:47:57 11:49:07 11° 299° (WNW) 11:50:18 435.000/436.395/437.385
FUNcube-1 28 May 11:48:46 11:51:20 16° 296° (WNW) 11:53:56 145.935
BEESAT 3 28 May 11:50:37 11:54:32 77° 122° (ESE) 11:58:30 437.485
Oscar 19 28 May 11:52:20 11:53:27 11° 56° (NE) 11:54:35 437.125/150
AISAT 28 May 11:59:02 12:02:41 24° 95° (E) 12:06:16 437.250
50 SAT 28 May 12:00:30 12:03:38 25° 96° (E) 12:06:45 437.505
CUSAT 1 28 May 12:02:56 12:09:20 76° 96° (E) 12:17:07 437.405
UKube-1 28 May 12:03:26 12:06:20 17° 93° (E) 12:09:13 .
DUCHIFAT 1 28 May 12:04:25 12:08:33 55° 259° (W) 12:12:42 145.980
DANDE 28 May 12:04:57 12:10:05 37° 87° (E) 12:16:34 436.750
BUGSAT 1 28 May 12:19:16 12:23:29 80° 259° (W) 12:27:40 437.445
ESTCUBE 1 28 May 12:39:47 12:44:22 86° 287° (WNW) 12:48:55 437.505/2401.250
POPSAT HIP 1 28 May 12:44:50 12:47:54 19° 267° (W) 12:50:59 437.405
QB50P1 28 May 12:45:12 12:48:14 19° 267° (W) 12:51:16 145.935-145.965
QB50P2 28 May 12:48:05 12:50:52 17° 268° (W) 12:53:40 145.880/145.840
HUMSAT D 28 May 12:49:04 12:51:08 14° 297° (WNW) 12:53:12 437.325/437.525
CUBEBUG 1 28 May 12:49:35 12:54:00 86° 104° (ESE) 12:58:20 437.445
DX 1 28 May 12:50:32 12:54:54 70° 102° (ESE) 12:59:13 434.975-435.025
POLYITAN 1 28 May 12:50:38 12:53:20 16° 268° (W) 12:56:04 437.675
PCSat 28 May 12:52:13 12:52:28 10° 331° (NNW) 12:52:43 145.827
BEESAT 2 28 May 12:55:14 12:59:00 40° 310° (NW) 13:02:48 435.950
VELOX 1 28 May 12:58:37 13:03:05 81° 284° (WNW) 13:07:28 145.980
NANOSAT C BR1 28 May 13:04:31 13:06:24 13° 270° (W) 13:08:16 145.865
SPROUT 28 May 13:12:58 13:17:11 60° 100° (E) 13:21:23 437.525
JAS-2 28 May 13:25:57 13:33:17 68° 259° (W) 13:41:10 435.910
Oscar 19 28 May 13:26:40 13:31:51 73° 74° (ENE) 13:37:04 437.125/150
BEESAT 3 28 May 13:30:30 13:32:44 14° 321° (NW) 13:34:58 437.485
Cosmos 2491 28 May 13:31:10 13:35:59 15° 56° (ENE) 13:40:45 435.465 / 435.565
AIST 2 28 May 13:33:38 13:37:22 34° 116° (ESE) 13:41:07 435.215
50 SAT 28 May 13:34:19 13:37:16 22° 292° (WNW) 13:40:13 437.505
TISAT 1 28 May 13:34:30 13:38:07 28° 96° (E) 13:41:41 437.305
AISAT 28 May 13:35:14 13:39:11 32° 292° (WNW) 13:43:05 437.250
UKube-1 28 May 13:38:28 13:42:36 44° 289° (WNW) 13:46:41 .
AO-7 28 May 13:46:47 13:52:22 20° 48° (NE) 13:57:58 29.400- 29.500
CUSAT 1 28 May 13:47:04 13:52:25 24° 299° (WNW) 13:58:28 437.405
DANDE 28 May 13:47:31 13:52:53 38° 292° (WNW) 13:59:40 436.750
Gurwin Techsat 1B 28 May 13:56:01 14:01:13 59° 72° (ENE) 14:06:27 435.225
AO-85 28 May 14:03:58 14:08:09 29° 44° (NE) 14:11:59 145.980
ITAMSAT 1 28 May 14:10:47 14:15:20 33° 66° (ENE) 14:19:56 435.822/435.867
ESTCUBE 1 28 May 14:19:57 14:20:25 10° 302° (WNW) 14:20:52 437.505/2401.250
DX 1 28 May 14:28:35 14:30:31 13° 299° (WNW) 14:32:27 434.975-435.025
CUBEBUG 1 28 May 14:28:43 14:29:35 11° 301° (WNW) 14:30:27 437.445
SWISSCUBE 28 May 14:40:07 14:44:22 30° 96° (E) 14:48:35 437.505
ITUPSAT 1 28 May 14:46:44 14:51:01 31° 96° (E) 14:55:17 437.325
SPROUT 28 May 14:50:31 14:52:39 14° 298° (WNW) 14:54:48 437.525
Oscar 19 28 May 15:09:00 15:11:43 14° 271° (W) 15:14:27 437.125/150
BEESAT 28 May 15:09:26 15:14:08 54° 100° (E) 15:18:49 436.000
TISAT 1 28 May 15:10:13 15:13:41 26° 293° (WNW) 15:17:08 437.305
AIST 2 28 May 15:12:21 15:15:53 27° 314° (NW) 15:19:27 435.215
JAS-2 28 May 15:16:43 15:19:43 13° 278° (W) 15:22:47 435.910
Cosmos 2491 28 May 15:25:52 15:34:39 72° 80° (E) 15:43:19 435.465 / 435.565
YUBILEINY 28 May 15:27:56 15:35:09 31° 83° (E) 15:42:24 435.215
AO-7 28 May 15:35:37 15:43:54 80° 69° (ENE) 15:52:15 29.400- 29.500
Gurwin Techsat 1B 28 May 15:37:54 15:41:32 19° 269° (W) 15:45:13 435.225
AO-85 28 May 15:44:26 15:48:42 37° 245° (WSW) 15:52:37 145.980
ITAMSAT 1 28 May 15:50:09 15:54:46 32° 263° (W) 15:59:25 435.822/435.867
KKS-1 28 May 15:51:19 15:54:22 18° 93° (E) 15:57:24 437.445
MOZHAYETS 4 28 May 16:12:48 16:16:36 24° 94° (E) 16:20:22
HORYU 2 28 May 16:16:14 16:20:11 33° 68° (ENE) 16:24:08 437.375
SWISSCUBE 28 May 16:17:55 16:22:06 31° 293° (WNW) 16:26:17 437.505
STARS 28 May 16:24:16 16:27:33 20° 94° (E) 16:30:49 437.465
ITUPSAT 1 28 May 16:24:36 16:28:47 30° 293° (WNW) 16:32:56 437.325
NOAA 15 28 May 16:39:55 16:42:50 15° 58° (ENE) 16:45:46 137.62
BEESAT 28 May 16:48:14 16:51:31 19° 297° (WNW) 16:54:47 436.000
Cubesat XI-IV 28 May 16:49:09 16:51:14 12° 56° (ENE) 16:53:21 437.490
NOAA 18 28 May 16:53:44 16:57:17 18° 59° (ENE) 17:00:50 137.9125
BRITE-PL 28 May 16:56:30 17:00:03 17° 60° (ENE) 17:03:35 437.365/2234.400
RS-15 28 May 17:07:47 17:18:32 53° 111° (ESE) 17:29:52 29.354- 29.394
GOMX 1 28 May 17:17:43 17:19:53 12° 59° (ENE) 17:22:02 467.674
YUBILEINY 28 May 17:22:52 17:31:24 60° 283° (WNW) 17:40:00 435.215
Cosmos 2491 28 May 17:23:57 17:30:36 25° 280° (W) 17:37:14 435.465 / 435.565
KKS-1 28 May 17:26:56 17:31:09 44° 289° (WNW) 17:35:20 437.445
AO-7 28 May 17:31:22 17:37:30 23° 268° (W) 17:43:42 29.400- 29.500
CUTE-I 28 May 17:32:12 17:36:41 29° 65° (ENE) 17:41:12 437.470
CUBESAT XI-V 28 May 17:40:47 17:44:37 24° 94° (E) 17:48:24 437.345
Cosmos 2504 28 May 17:46:48 17:53:53 62° 92° (E) 18:01:24 435.465 / 435.565
MOZHAYETS 4 28 May 17:49:37 17:53:49 35° 291° (WNW) 17:58:02
HORYU 2 28 May 17:53:12 17:56:46 24° 265° (W) 18:00:22 437.375
HO-68 28 May 17:58:15 18:00:27 12° 46° (NE) 18:02:39 435.675
STARS 28 May 18:00:00 18:04:02 37° 291° (WNW) 18:08:04 437.465
DOVE 4 28 May 18:00:49 18:03:32 15° 62° (ENE) 18:06:11 437.250
PCSat 28 May 18:05:54 18:10:48 33° 49° (NE) 18:15:40 145.827
NOAA 15 28 May 18:16:35 18:21:54 82° 256° (WSW) 18:27:16 137.62
Cubesat XI-IV 28 May 18:25:09 18:30:28 82° 74° (ENE) 18:35:48 437.490
M-CUBED/EXP-1 PRIME 28 May 18:25:34 18:26:44 11° 58° (ENE) 18:27:52 437.505
LilacSat-2 28 May 18:27:50 18:31:38 81° 76° (ENE) 18:35:26 437.200
NOAA 18 28 May 18:31:55 18:37:21 71° 257° (WSW) 18:42:50 137.9125
BRITE-PL 28 May 18:32:08 18:37:48 81° 258° (WSW) 18:43:32 437.365/2234.400
GOMX 1 28 May 18:51:39 18:57:09 80° 76° (ENE) 19:02:31 467.674
O/OREOS (USA 219) 28 May 19:03:21 19:07:40 45° 62° (ENE) 19:11:57 437.305
CUTE-I 28 May 19:11:38 19:16:34 39° 262° (W) 19:21:33 437.470
CUBESAT XI-V 28 May 19:17:45 19:22:05 37° 290° (WNW) 19:26:23 437.345
RS-15 28 May 19:19:54 19:31:03 54° 316° (NW) 19:42:53 29.354- 29.394
STRAND 1 28 May 19:24:36 19:28:38 23° 93° (E) 19:32:38 437.568
YUBILEINY 28 May 19:27:17 19:30:25 12° 307° (NW) 19:33:33 435.215
BEESAT 2 28 May 19:35:04 19:38:02 20° 43° (NE) 19:41:00 435.950
DOVE 4 28 May 19:35:24 19:40:38 80° 258° (WSW) 19:45:39 437.250
CANX-2 28 May 19:38:33 19:42:21 34° 70° (ENE) 19:46:12 2200.000
SEEDS 28 May 19:39:35 19:42:53 23° 67° (ENE) 19:46:14 437.485
HO-68 28 May 19:39:44 19:46:38 55° 67° (ENE) 19:53:33 435.675
Cosmos 2504 28 May 19:42:02 19:47:54 26° 294° (WNW) 19:54:05 435.465 / 435.565
AUBIESAT-1 28 May 19:49:06 19:53:10 74° 70° (ENE) 19:56:57 437.475
PCSat 28 May 19:49:13 19:54:16 40° 248° (WSW) 19:59:17 145.827
M-CUBED/EXP-1 PRIME 28 May 19:56:42 20:00:52 74° 251° (WSW) 20:04:44 437.505
CINEMA 3 28 May 19:58:29 20:03:06 57° 73° (ENE) 20:07:33 145.822/145.860
NOAA 15 28 May 20:02:13 20:02:28 10° 273° (W) 20:02:44 137.62
CUTE 1.7 + AOD 2 28 May 20:05:12 20:09:19 60° 74° (ENE) 20:13:30 437.475
BEESAT 3 28 May 20:07:05 20:11:01 59° 54° (NE) 20:14:54 437.485
Cubesat XI-IV 28 May 20:08:52 20:11:10 13° 271° (W) 20:13:30 437.490
BRITE-PL 28 May 20:15:18 20:17:03 11° 275° (W) 20:18:49 437.365/2234.400
Oscar 11 28 May 20:15:40 20:18:05 15° 63° (ENE) 20:20:31 145.826/435.025
COMPASS 1 28 May 20:22:46 20:26:45 48° 73° (ENE) 20:30:47 437.405
AAUSAT CUBESAT 2 28 May 20:24:18 20:28:09 40° 71° (ENE) 20:32:03 437.432
PRISM 28 May 20:26:49 20:29:12 15° 92° (E) 20:31:33 437.425
ZACube-1 28 May 20:31:34 20:34:29 19° 66° (ENE) 20:37:23 437.345
GOMX 1 28 May 20:32:54 20:35:44 14° 272° (W) 20:38:34 467.674
AIST 1 28 May 20:33:02 20:36:08 19° 87° (E) 20:39:14
CUBEBUG 2 28 May 20:40:41 20:44:53 49° 73° (ENE) 20:48:59 437.445
O/OREOS (USA 219) 28 May 20:43:39 20:46:42 18° 259° (W) 20:49:43 437.305
DELFI C3 28 May 20:46:48 20:48:50 14° 64° (ENE) 20:50:53 145.870
CUSAT 1 28 May 20:57:44 21:01:17 14° 52° (NE) 21:04:37 437.405
STRAND 1 28 May 21:03:05 21:08:00 46° 290° (WNW) 21:12:54 437.568
UWE-3 28 May 21:06:42 21:10:57 65° 75° (ENE) 21:15:08 435.000/436.395/437.385
FUNcube-1 28 May 21:07:47 21:11:44 41° 72° (ENE) 21:15:39 145.935
BEESAT 2 28 May 21:12:17 21:16:09 49° 241° (WSW) 21:19:58 435.950
SEEDS 28 May 21:14:44 21:18:27 31° 264° (W) 21:22:12 437.485
CANX-2 28 May 21:15:08 21:18:18 21° 267° (W) 21:21:30 2200.000
GONETS M04 28 May 21:17:44 21:25:29 37° 85° (E) 21:33:11
ISS 28 May 21:21:19 21:24:27 45° 141° (SE) 21:27:36 145.825
HO-68 28 May 21:28:32 21:34:38 30° 265° (W) 21:40:47 435.675
RS-15 28 May 21:37:34 21:47:11 27° 348° (NNW) 21:57:08 29.354- 29.394
CINEMA 3 28 May 21:37:48 21:40:32 15° 269° (W) 21:43:12 145.822/145.860
CUTE 1.7 + AOD 2 28 May 21:43:54 21:45:34 12° 271° (W) 21:47:15 437.475
BEESAT 3 28 May 21:46:23 21:48:13 13° 251° (WSW) 21:50:02 437.485
Oscar 11 28 May 21:49:33 21:53:46 56° 260° (W) 21:58:01 145.826/435.025
AIST 2 28 May 21:53:52 21:57:37 32° 48° (NE) 22:01:21 435.215
COMPASS 1 28 May 22:00:17 22:02:36 15° 269° (W) 22:04:57 437.405
PRISM 28 May 22:00:44 22:04:47 49° 288° (WNW) 22:08:47 437.425
AAUSAT CUBESAT 2 28 May 22:01:04 22:03:49 17° 268° (W) 22:06:37 437.432
HUMSAT D 28 May 22:03:58 22:07:50 44° 72° (ENE) 22:11:44 437.325/437.525
ZACube-1 28 May 22:06:31 22:10:31 40° 262° (W) 22:14:28 437.345
ESTCUBE 1 28 May 22:06:52 22:08:17 11° 59° (ENE) 22:09:42 437.505/2401.250
AIST 1 28 May 22:09:18 22:13:25 38° 283° (WNW) 22:17:34
Cosmos 2499 28 May 22:17:54 22:24:47 48° 89° (E) 22:32:11 435.465 / 435.565
CUBEBUG 2 28 May 22:19:11 22:21:46 15° 268° (W) 22:24:18 437.445
DELFI C3 28 May 22:19:24 22:23:16 51° 260° (W) 22:27:11 145.870
VELOX 1 28 May 22:23:37 22:25:05 11° 60° (ENE) 22:26:33 145.980
ANTELSAT 28 May 22:28:18 22:31:14 18° 93° (E) 22:34:10 437.575/2403.000
PHONESAT 2.4 28 May 22:33:06 22:35:55 30° 162° (SSE) 22:38:43 2401.200-2431.200
CUSAT 1 28 May 22:37:34 22:45:18 62° 75° (ENE) 22:51:40 437.405
50 SAT 28 May 22:40:46 22:42:47 14° 65° (ENE) 22:44:48 437.505
DANDE 28 May 22:42:00 22:49:53 41° 69° (ENE) 22:57:04 436.750
FUNcube-1 28 May 22:45:23 22:48:10 17° 268° (W) 22:50:56 145.935
UWE-3 28 May 22:46:35 22:47:50 11° 270° (W) 22:49:05 435.000/436.395/437.385
AISAT 28 May 22:57:18 23:00:59 26° 67° (ENE) 23:04:41 437.250
ISS 28 May 22:58:01 23:00:59 31° 339° (NNW) 23:03:57 145.825
UKube-1 28 May 22:59:07 23:02:03 18° 64° (ENE) 23:04:59 .
GONETS M04 28 May 23:13:29 23:21:59 52° 285° (WNW) 23:30:30
UNISAT 6 28 May 23:22:40 23:26:58 68° 101° (E) 23:31:20 437.425
TIGRISAT 28 May 23:29:46 23:34:05 77° 103° (ESE) 23:38:27 435.000
AIST 2 28 May 23:32:29 23:36:00 27° 246° (WSW) 23:39:32 435.215
ESTCUBE 1 28 May 23:39:52 23:44:23 85° 254° (WSW) 23:48:58 437.505/2401.250
HUMSAT D 28 May 23:41:17 23:43:42 15° 268° (W) 23:46:07 437.325/437.525
CUBEBUG 1 28 May 23:45:58 23:50:24 79° 77° (ENE) 23:54:51 437.445
DX 1 28 May 23:46:35 23:50:56 67° 73° (ENE) 23:55:18 434.975-435.025
DUCHIFAT 1 28 May 23:48:13 23:51:23 21° 94° (E) 23:54:31 145.980
RS-15 28 May 23:54:20 00:04:51 32° 24° (NNE) 00:15:30 29.354- 29.394
VELOX 1 28 May 23:56:25 00:00:53 82° 258° (WSW) 00:05:23 145.980
BUGSAT 1 29 May 00:01:56 00:03:49 13° 91° (E) 00:05:40 437.445
ANTELSAT 29 May 00:04:04 00:08:08 43° 288° (WNW) 00:12:16 437.575/2403.000
SPROUT 29 May 00:07:10 00:11:20 51° 73° (ENE) 00:15:30 437.525
PHONESAT 2.4 29 May 00:09:20 00:12:24 53° 178° (S) 00:15:28 2401.200-2431.200
Cosmos 2499 29 May 00:11:38 00:18:09 34° 291° (WNW) 00:25:07 435.465 / 435.565
50 SAT 29 May 00:12:45 00:16:10 40° 261° (W) 00:19:39 437.505
CUSAT 1 29 May 00:20:39 00:26:40 26° 278° (W) 00:31:55 437.405
DANDE 29 May 00:24:53 00:32:54 49° 270° (W) 00:40:04 436.750
TISAT 1 29 May 00:27:11 00:30:37 24° 67° (ENE) 00:34:02 437.305
POPSAT HIP 1 29 May 00:27:11 00:31:22 62° 101° (E) 00:35:30 437.405
QB50P1 29 May 00:27:27 00:31:38 63° 102° (ESE) 00:35:47 145.935-145.965
QB50P2 29 May 00:30:13 00:34:26 72° 102° (ESE) 00:38:38 145.880/145.840
SO-50 29 May 00:31:55 00:36:47 66° 121° (ESE) 00:41:39 436.795
POLYITAN 1 29 May 00:32:41 00:36:54 74° 101° (ESE) 00:41:05 437.675
AISAT 29 May 00:33:20 00:37:20 32° 263° (W) 00:41:22 437.250
UKube-1 29 May 00:33:34 00:37:44 46° 260° (W) 00:41:57 .
ISS 29 May 00:35:49 00:38:09 18° 359° (N) 00:40:29 145.825
JAS-2 29 May 00:36:48 00:41:58 20° 86° (E) 00:46:46 435.910
NANOSAT C BR1 29 May 00:45:06 00:49:18 85° 286° (WNW) 00:53:30 145.865
UNISAT 6 29 May 01:01:19 01:03:10 13° 298° (WNW) 01:05:01 437.425
TIGRISAT 29 May 01:08:54 01:10:11 11° 299° (WNW) 01:11:29 435.000
GONETS M04 29 May 01:20:42 01:21:20 10° 310° (NW) 01:21:58
DUCHIFAT 1 29 May 01:23:23 01:27:10 34° 290° (WNW) 01:30:56 145.980
DX 1 29 May 01:25:59 01:27:35 12° 270° (W) 01:29:10 434.975-435.025
CUBEBUG 1 29 May 01:27:03 01:27:14 10° 272° (W) 01:27:25 437.445
BUGSAT 1 29 May 01:35:35 01:39:31 51° 287° (WNW) 01:43:24 437.445
YUBILEINY 29 May 01:36:45 01:41:46 16° 57° (ENE) 01:46:45 435.215
Oscar 19 29 May 01:37:59 01:42:05 24° 94° (E) 01:46:09 437.125/150
SPROUT 29 May 01:45:09 01:47:35 15° 269° (W) 01:50:02 437.525
PHONESAT 2.4 29 May 01:46:02 01:48:55 34° 195° (SSW) 01:51:47 2401.200-2431.200
SWISSCUBE 29 May 01:47:23 01:51:46 39° 69° (ENE) 01:56:12 437.505
ITUPSAT 1 29 May 01:54:16 01:58:42 40° 69° (ENE) 02:03:10 437.325
TISAT 1 29 May 02:02:25 02:06:08 30° 263° (W) 02:09:53 437.305
POPSAT HIP 1 29 May 02:04:40 02:06:39 13° 298° (WNW) 02:08:36 437.405
QB50P1 29 May 02:05:00 02:06:53 13° 298° (WNW) 02:08:47 145.935-145.965
RS-15 29 May 02:07:34 02:19:56 74° 53° (NE) 02:32:14 29.354- 29.394
QB50P2 29 May 02:08:15 02:09:39 12° 299° (WNW) 02:11:04 145.880/145.840
POLYITAN 1 29 May 02:10:49 02:12:06 11° 299° (WNW) 02:13:24 437.675
Gurwin Techsat 1B 29 May 02:11:59 02:16:00 21° 92° (E) 02:20:00 435.225
ISS 29 May 02:12:29 02:15:21 27° 19° (NNE) 02:18:13 145.825
SO-50 29 May 02:13:53 02:17:43 22° 320° (NW) 02:21:31 436.795
BEESAT 29 May 02:16:33 02:21:16 69° 74° (ENE) 02:26:01 436.000
JAS-2 29 May 02:20:23 02:27:53 77° 287° (WNW) 02:34:32 435.910
Cosmos 2491 29 May 02:36:15 02:40:59 16° 75° (ENE) 02:45:43 435.465 / 435.565
KKS-1 29 May 02:50:22 02:53:36 20° 64° (ENE) 02:56:51 437.445
MOZHAYETS 4 29 May 03:15:41 03:19:27 26° 67° (ENE) 03:23:14
Oscar 19 29 May 03:16:42 03:21:36 44° 291° (WNW) 03:26:26 437.125/150
STARS 29 May 03:21:55 03:25:17 22° 65° (ENE) 03:28:39 437.465
PHONESAT 2.4 29 May 03:24:23 03:25:05 11° 211° (SSW) 03:25:49 2401.200-2431.200
SWISSCUBE 29 May 03:25:55 03:29:41 23° 266° (W) 03:33:30 437.505
YUBILEINY 29 May 03:31:30 03:40:17 74° 80° (E) 03:49:04 435.215
ITUPSAT 1 29 May 03:32:57 03:36:41 22° 266° (W) 03:40:26 437.325
AO-7 29 May 03:37:07 03:43:36 24° 93° (E) 03:50:03 29.400- 29.500
Cosmos 2504 29 May 03:37:20 03:44:13 27° 66° (ENE) 03:51:19 435.465 / 435.565
ISS 29 May 03:48:46 03:51:59 58° 217° (SW) 03:55:11 145.825
Gurwin Techsat 1B 29 May 03:51:05 03:56:15 51° 289° (WNW) 04:01:22 435.225
BEESAT 29 May 03:57:18 03:59:32 13° 270° (W) 04:01:46 436.000
ITAMSAT 1 29 May 04:01:09 04:06:24 82° 101° (E) 04:11:39 435.822/435.867
JAS-2 29 May 04:07:08 04:11:33 17° 308° (NW) 04:15:46 435.910
RS-15 29 May 04:20:56 04:31:31 36° 255° (WSW) 04:42:05 29.354- 29.394
KKS-1 29 May 04:25:38 04:29:53 43° 261° (W) 04:34:09 437.445
Cosmos 2491 29 May 04:27:29 04:36:19 80° 95° (E) 04:45:09 435.465 / 435.565
CUBESAT XI-V 29 May 04:44:57 04:48:52 27° 67° (ENE) 04:52:46 437.345
MOZHAYETS 4 29 May 04:52:24 04:56:30 32° 264° (W) 05:00:37
STARS 29 May 04:57:18 05:01:25 38° 262° (W) 05:05:32 437.465
